Time,TemperatureF,DewpointF,PressureIn,WindDirection,WindDirectionDegrees,WindSpeedMPH,WindSpeedGustMPH,Humidity,HourlyPrecipIn,Conditions,Clouds,dailyrainin,SoftwareType,DateUTC
2013-04-13 00:00:00,78.6,69.6,29.59,SW,225,0.0,0.0,74,0.00,,---,0.00,VWS V13.01,2013-04-13 04:00:00,
2013-04-13 00:01:00,78.6,69.6,29.59,SW,225,0.0,0.0,74,0.00,,---,0.00,VWS V13.01,2013-04-13 04:01:00,
2013-04-13 00:04:00,78.6,69.6,29.59,SSW,202,0.0,0.0,74,0.00,,---,0.00,VWS V13.01,2013-04-13 04:04:00,
2013-04-13 00:06:00,78.6,69.6,29.59,SSW,202,0.0,0.0,74,0.00,,---,0.00,VWS V13.01,2013-04-13 04:06:00,
2013-04-13 00:12:00,78.6,69.6,29.59,SSW,202,0.0,0.0,74,0.00,,---,0.00,VWS V13.01,2013-04-13 04:12:00,
2013-04-13 00:17:00,78.6,69.6,29.59,SSW,202,0.0,0.0,74,0.00,,---,0.00,VWS V13.01,2013-04-13 04:17:00,
2013-04-13 00:22:00,78.4,69.4,29.59,SSW,202,0.0,0.0,74,0.00,,---,0.00,VWS V13.01,2013-04-13 04:22:00,
2013-04-13 00:27:00,78.4,69.4,29.58,SSW,202,0.0,0.0,74,0.00,,---,0.00,VWS V13.01,2013-04-13 04:27:00,
2013-04-13 00:32:00,78.4,69.4,29.58,SW,225,0.0,0.0,74,0.00,,---,0.00,VWS V13.01,2013-04-13 04:32:00,
2013-04-13 00:37:00,78.2,69.2,29.58,WSW,248,0.0,0.0,74,0.00,,---,0.00,VWS V13.01,2013-04-13 04:37:00,
2013-04-13 00:42:00,78.0,69.4,29.58,WSW,248,0.0,0.0,75,0.00,,---,0.00,VWS V13.01,2013-04-13 04:42:00,
2013-04-13 00:47:00,78.0,69.1,29.58,SSW,202,0.0,0.0,74,0.00,,---,0.00,VWS V13.01,2013-04-13 04:47:00,
2013-04-13 00:52:00,78.0,69.1,29.57,SSW,202,0.0,0.0,74,0.00,,---,0.00,VWS V13.01,2013-04-13 04:52:00,
2013-04-13 00:57:00,77.9,68.9,29.57,SSW,202,0.0,0.0,74,0.00,,---,0.00,VWS V13.01,2013-04-13 04:57:00,
2013-04-13 01:02:00,77.7,69.2,29.58,SSW,202,0.0,0.0,75,0.00,,---,0.00,VWS V13.01,2013-04-13 05:02:00,
2013-04-13 01:07:00,77.7,69.2,29.58,SSW,202,0.0,0.0,75,0.00,,---,0.00,VWS V13.01,2013-04-13 05:07:00,
2013-04-13 01:12:00,77.5,69.0,29.58,SW,225,0.0,0.0,75,0.00,,---,0.00,VWS V13.01,2013-04-13 05:12:00,
2013-04-13 01:17:00,77.5,69.3,29.57,SW,225,0.0,0.0,76,0.00,,---,0.00,VWS V13.01,2013-04-13 05:17:00,
2013-04-13 01:22:00,77.5,69.3,29.57,SW,225,0.0,0.0,76,0.00,,---,0.00,VWS V13.01,2013-04-13 05:22:00,
2013-04-13 01:27:00,77.5,69.3,29.57,SW,225,0.0,0.0,76,0.00,,---,0.00,VWS V13.01,2013-04-13 05:27:00,
2013-04-13 01:32:00,77.5,69.3,29.57,SW,225,0.0,0.0,76,0.00,,---,0.00,VWS V13.01,2013-04-13 05:32:00,
2013-04-13 01:37:00,77.3,69.2,29.57,SW,225,0.0,0.0,76,0.00,,---,0.00,VWS V13.01,2013-04-13 05:37:00,
2013-04-13 01:42:00,77.3,69.2,29.58,SW,225,0.0,0.0,76,0.00,,---,0.00,VWS V13.01,2013-04-13 05:42:00,
2013-04-13 01:47:00,77.1,69.3,29.58,SW,225,0.0,0.0,77,0.00,,---,0.00,VWS V13.01,2013-04-13 05:47:00,
2013-04-13 01:52:00,77.0,69.2,29.58,SW,225,0.0,0.0,77,0.00,,---,0.00,VWS V13.01,2013-04-13 05:52:00,
2013-04-13 01:57:00,76.8,69.1,29.57,SW,225,0.0,0.0,77,0.00,,---,0.00,VWS V13.01,2013-04-13 05:57:00,
2013-04-13 02:02:00,76.8,69.1,29.57,SW,225,0.0,0.0,77,0.00,,---,0.00,VWS V13.01,2013-04-13 06:02:00,
2013-04-13 02:07:00,76.8,69.1,29.57,SW,225,0.0,0.0,77,0.00,,---,0.00,VWS V13.01,2013-04-13 06:07:00,
2013-04-13 02:12:00,76.8,69.1,29.57,SW,225,0.0,0.0,77,0.00,,---,0.00,VWS V13.01,2013-04-13 06:12:00,
2013-04-13 02:17:00,76.8,69.1,29.56,SW,225,0.0,0.0,77,0.00,,---,0.00,VWS V13.01,2013-04-13 06:17:00,
2013-04-13 02:22:00,76.8,69.1,29.56,SW,225,0.0,0.0,77,0.00,,---,0.00,VWS V13.01,2013-04-13 06:22:00,
2013-04-13 02:27:00,76.6,68.9,29.57,SW,225,0.0,0.0,77,0.00,,---,0.00,VWS V13.01,2013-04-13 06:27:00,
2013-04-13 02:32:00,76.6,68.9,29.57,SW,225,0.0,0.0,77,0.00,,---,0.00,VWS V13.01,2013-04-13 06:32:00,
2013-04-13 02:37:00,76.6,68.9,29.56,SW,225,0.0,0.0,77,0.00,,---,0.00,VWS V13.01,2013-04-13 06:37:00,
2013-04-13 02:42:00,76.4,69.0,29.57,SW,225,0.0,0.0,78,0.00,,---,0.00,VWS V13.01,2013-04-13 06:42:00,
2013-04-13 02:48:00,76.2,68.8,29.57,SW,225,0.0,0.0,78,0.00,,---,0.00,VWS V13.01,2013-04-13 06:48:00,
2013-04-13 02:53:00,76.2,68.8,29.57,SW,225,0.0,0.0,78,0.00,,---,0.00,VWS V13.01,2013-04-13 06:53:00,
2013-04-13 02:58:00,76.1,68.8,29.56,SW,225,0.0,0.0,78,0.00,,---,0.00,VWS V13.01,2013-04-13 06:58:00,
2013-04-13 03:03:00,75.9,68.6,29.56,SW,225,0.0,0.0,78,0.00,,---,0.00,VWS V13.01,2013-04-13 07:03:00,
2013-04-13 03:09:00,75.9,68.6,29.56,SW,225,0.0,0.0,78,0.00,,---,0.00,VWS V13.01,2013-04-13 07:09:00,
2013-04-13 03:14:00,75.9,68.6,29.56,SW,225,0.0,0.0,78,0.00,,---,0.00,VWS V13.01,2013-04-13 07:14:00,
2013-04-13 03:19:00,75.9,68.9,29.56,SW,225,0.0,0.0,79,0.00,,---,0.00,VWS V13.01,2013-04-13 07:19:00,
2013-04-13 03:24:00,75.9,68.9,29.56,SW,225,0.0,0.0,79,0.00,,---,0.00,VWS V13.01,2013-04-13 07:24:00,
2013-04-13 03:29:00,75.7,68.7,29.56,SW,225,0.0,0.0,79,0.00,,---,0.00,VWS V13.01,2013-04-13 07:29:00,
2013-04-13 03:34:00,75.7,68.7,29.56,SW,225,0.0,0.0,79,0.00,,---,0.00,VWS V13.01,2013-04-13 07:34:00,
2013-04-13 03:39:00,75.7,68.7,29.55,SW,225,0.0,0.0,79,0.00,,---,0.00,VWS V13.01,2013-04-13 07:39:00,
2013-04-13 03:45:00,75.7,68.7,29.55,SW,225,0.0,0.0,79,0.00,,---,0.00,VWS V13.01,2013-04-13 07:45:00,
2013-04-13 03:50:00,75.7,68.7,29.55,SW,225,0.0,0.0,79,0.00,,---,0.00,VWS V13.01,2013-04-13 07:50:00,
2013-04-13 03:55:00,75.7,68.7,29.55,SW,225,0.0,0.0,79,0.00,,---,0.00,VWS V13.01,2013-04-13 07:55:00,
2013-04-13 04:00:00,75.5,68.5,29.56,SW,225,0.0,0.0,79,0.00,,---,0.00,VWS V13.01,2013-04-13 08:00:00,
2013-04-13 04:05:00,75.5,68.5,29.56,SW,225,0.0,0.0,79,0.00,,---,0.00,VWS V13.01,2013-04-13 08:05:00,
2013-04-13 04:10:00,75.3,68.3,29.56,SW,225,0.0,0.0,79,0.00,,---,0.00,VWS V13.01,2013-04-13 08:10:00,
2013-04-13 04:15:00,75.3,68.7,29.56,SW,225,0.0,0.0,80,0.00,,---,0.00,VWS V13.01,2013-04-13 08:15:00,
2013-04-13 04:22:00,75.3,68.7,29.55,SW,225,0.0,0.0,80,0.00,,---,0.00,VWS V13.01,2013-04-13 08:22:00,
2013-04-13 04:27:00,75.3,68.7,29.55,SW,225,0.0,0.0,80,0.00,,---,0.00,VWS V13.01,2013-04-13 08:27:00,
2013-04-13 04:32:00,75.3,68.7,29.55,SW,225,0.0,0.0,80,0.00,,---,0.00,VWS V13.01,2013-04-13 08:32:00,
2013-04-13 04:38:00,75.3,68.7,29.56,SW,225,0.0,0.0,80,0.00,,---,0.00,VWS V13.01,2013-04-13 08:38:00,
2013-04-13 04:44:00,75.3,68.7,29.55,SW,225,0.0,0.0,80,0.00,,---,0.00,VWS V13.01,2013-04-13 08:44:00,
2013-04-13 04:50:00,75.3,68.7,29.55,SW,225,0.0,0.0,80,0.00,,---,0.00,VWS V13.01,2013-04-13 08:50:00,
2013-04-13 04:55:00,75.3,68.7,29.55,SW,225,0.0,0.0,80,0.00,,---,0.00,VWS V13.01,2013-04-13 08:55:00,
2013-04-13 05:00:00,75.3,68.7,29.55,SW,225,0.0,0.0,80,0.00,,---,0.00,VWS V13.01,2013-04-13 09:00:00,
2013-04-13 05:05:00,75.3,68.7,29.55,SW,225,0.0,0.0,80,0.00,,---,0.00,VWS V13.01,2013-04-13 09:05:00,
2013-04-13 05:10:00,75.3,68.7,29.56,SW,225,0.0,0.0,80,0.00,,---,0.00,VWS V13.01,2013-04-13 09:10:00,
2013-04-13 05:15:00,75.3,68.7,29.56,SW,225,0.0,0.0,80,0.00,,---,0.00,VWS V13.01,2013-04-13 09:15:00,
2013-04-13 05:20:00,75.3,68.7,29.56,SW,225,0.0,0.0,80,0.00,,---,0.00,VWS V13.01,2013-04-13 09:20:00,
2013-04-13 05:25:00,75.3,69.1,29.56,SW,225,0.0,0.0,81,0.00,,---,0.00,VWS V13.01,2013-04-13 09:25:00,
2013-04-13 05:31:00,75.3,69.1,29.56,SW,225,0.0,0.0,81,0.00,,---,0.00,VWS V13.01,2013-04-13 09:31:00,
2013-04-13 05:37:00,75.3,69.1,29.55,SW,225,0.0,0.0,81,0.00,,---,0.00,VWS V13.01,2013-04-13 09:37:00,
2013-04-13 05:42:00,75.3,69.1,29.55,SW,225,0.0,0.0,81,0.00,,---,0.00,VWS V13.01,2013-04-13 09:42:00,
2013-04-13 05:47:00,75.3,69.1,29.55,SW,225,0.0,0.0,81,0.00,,---,0.00,VWS V13.01,2013-04-13 09:47:00,
2013-04-13 05:52:00,75.3,69.1,29.56,SW,225,0.0,0.0,81,0.00,,---,0.00,VWS V13.01,2013-04-13 09:52:00,
2013-04-13 05:58:00,75.0,68.8,29.55,SW,225,0.0,0.0,81,0.00,,---,0.00,VWS V13.01,2013-04-13 09:58:00,
2013-04-13 06:04:00,75.0,68.8,29.56,SW,225,0.0,0.0,81,0.00,,---,0.00,VWS V13.01,2013-04-13 10:04:00,
2013-04-13 06:09:00,75.0,68.8,29.56,SW,225,0.0,0.0,81,0.00,,---,0.00,VWS V13.01,2013-04-13 10:09:00,
2013-04-13 06:14:00,75.0,68.8,29.56,SW,225,0.0,0.0,81,0.00,,---,0.00,VWS V13.01,2013-04-13 10:14:00,
2013-04-13 06:19:00,75.0,68.8,29.56,SW,225,0.0,0.0,81,0.00,,---,0.00,VWS V13.01,2013-04-13 10:19:00,
2013-04-13 06:24:00,75.0,68.8,29.56,SW,225,0.0,0.0,81,0.00,,---,0.00,VWS V13.01,2013-04-13 10:24:00,
2013-04-13 06:29:00,75.0,68.8,29.56,SW,225,0.0,0.0,81,0.00,,---,0.00,VWS V13.01,2013-04-13 10:29:00,
2013-04-13 06:34:00,75.0,68.8,29.56,SW,225,0.0,0.0,81,0.00,,---,0.00,VWS V13.01,2013-04-13 10:34:00,
2013-04-13 06:39:00,75.0,68.8,29.56,SW,225,0.0,0.0,81,0.00,,---,0.00,VWS V13.01,2013-04-13 10:39:00,
2013-04-13 06:44:00,75.0,68.8,29.56,SW,225,0.0,0.0,81,0.00,,---,0.00,VWS V13.01,2013-04-13 10:44:00,
2013-04-13 06:49:00,75.0,68.8,29.56,SW,225,0.0,0.0,81,0.00,,---,0.00,VWS V13.01,2013-04-13 10:49:00,
2013-04-13 06:54:00,75.0,68.8,29.56,SW,225,0.0,0.0,81,0.00,,---,0.00,VWS V13.01,2013-04-13 10:54:00,
2013-04-13 06:59:00,75.0,68.8,29.56,SW,225,0.0,0.0,81,0.00,,---,0.00,VWS V13.01,2013-04-13 10:59:00,
2013-04-13 07:04:00,75.0,68.8,29.56,SW,225,0.0,0.0,81,0.00,,---,0.00,VWS V13.01,2013-04-13 11:04:00,
2013-04-13 07:09:00,75.0,68.8,29.56,SW,225,0.0,0.0,81,0.00,,---,0.00,VWS V13.01,2013-04-13 11:09:00,
2013-04-13 07:14:00,75.0,68.8,29.56,SW,225,0.0,0.0,81,0.00,,---,0.00,VWS V13.01,2013-04-13 11:14:00,
2013-04-13 07:19:00,75.0,68.8,29.56,SW,225,0.0,0.0,81,0.00,,---,0.00,VWS V13.01,2013-04-13 11:19:00,
2013-04-13 07:25:00,75.0,68.8,29.56,SW,225,0.0,0.0,81,0.00,,---,0.00,VWS V13.01,2013-04-13 11:25:00,
2013-04-13 07:30:00,75.0,68.8,29.56,SW,225,0.0,0.0,81,0.00,,---,0.00,VWS V13.01,2013-04-13 11:30:00,
2013-04-13 07:35:00,75.0,68.8,29.56,SW,225,0.0,0.0,81,0.00,,---,0.00,VWS V13.01,2013-04-13 11:35:00,
2013-04-13 07:40:00,75.0,68.8,29.56,SW,225,0.0,0.0,81,0.00,,---,0.00,VWS V13.01,2013-04-13 11:40:00,
2013-04-13 07:45:00,75.0,68.8,29.56,SW,225,0.0,0.0,81,0.00,,---,0.00,VWS V13.01,2013-04-13 11:45:00,
2013-04-13 07:50:00,75.0,68.8,29.56,SW,225,0.0,0.0,81,0.00,,---,0.00,VWS V13.01,2013-04-13 11:50:00,
2013-04-13 07:55:00,75.0,68.8,29.56,SW,225,0.0,0.0,81,0.00,,---,0.00,VWS V13.01,2013-04-13 11:55:00,
2013-04-13 08:00:00,75.0,68.8,29.56,SW,225,0.0,0.0,81,0.00,,---,0.00,VWS V13.01,2013-04-13 12:00:00,
2013-04-13 08:05:00,75.0,68.8,29.56,SW,225,0.0,0.0,81,0.00,,---,0.00,VWS V13.01,2013-04-13 12:05:00,
2013-04-13 08:10:00,75.0,68.8,29.56,SW,225,0.0,0.0,81,0.00,,---,0.00,VWS V13.01,2013-04-13 12:10:00,
2013-04-13 08:17:00,75.0,68.8,29.56,SW,225,0.0,0.0,81,0.00,,---,0.00,VWS V13.01,2013-04-13 12:17:00,
2013-04-13 08:22:00,75.0,68.8,29.56,SW,225,0.0,0.0,81,0.00,,---,0.00,VWS V13.01,2013-04-13 12:22:00,
2013-04-13 08:28:00,75.0,68.8,29.56,SW,225,0.0,0.0,81,0.00,,---,0.00,VWS V13.01,2013-04-13 12:28:00,
2013-04-13 08:33:00,75.0,68.8,29.56,SW,225,0.0,0.0,81,0.00,,---,0.00,VWS V13.01,2013-04-13 12:33:00,
2013-04-13 08:39:00,75.0,68.8,29.56,SW,225,0.0,0.0,81,0.00,,---,0.00,VWS V13.01,2013-04-13 12:39:00,
2013-04-13 08:45:00,75.0,68.8,29.56,SW,225,0.0,0.0,81,0.00,,---,0.00,VWS V13.01,2013-04-13 12:45:00,
2013-04-13 08:50:00,75.0,68.8,29.56,SW,225,0.0,0.0,81,0.00,,---,0.00,VWS V13.01,2013-04-13 12:50:00,
2013-04-13 08:56:00,75.0,68.8,29.56,SW,225,0.0,0.0,81,0.00,,---,0.00,VWS V13.01,2013-04-13 12:56:00,
2013-04-13 09:02:00,75.0,68.8,29.56,SW,225,0.0,0.0,81,0.00,,---,0.00,VWS V13.01,2013-04-13 13:02:00,
2013-04-13 09:08:00,75.0,68.8,29.56,SW,225,0.0,0.0,81,0.00,,---,0.00,VWS V13.01,2013-04-13 13:08:00,
2013-04-13 09:13:00,75.0,68.8,29.56,SW,225,0.0,0.0,81,0.00,,---,0.00,VWS V13.01,2013-04-13 13:13:00,
2013-04-13 09:21:00,75.0,68.8,29.56,SW,225,0.0,0.0,81,0.00,,---,0.00,VWS V13.01,2013-04-13 13:21:00,
2013-04-13 09:27:00,75.0,68.8,29.56,SW,225,0.0,0.0,81,0.00,,---,0.00,VWS V13.01,2013-04-13 13:27:00,
2013-04-13 09:32:00,75.0,68.8,29.56,SW,225,0.0,0.0,81,0.00,,---,0.00,VWS V13.01,2013-04-13 13:32:00,
2013-04-13 09:37:00,75.0,68.8,29.56,SW,225,0.0,0.0,81,0.00,,---,0.00,VWS V13.01,2013-04-13 13:37:00,
2013-04-13 09:42:00,75.0,68.8,29.56,SW,225,0.0,0.0,81,0.00,,---,0.00,VWS V13.01,2013-04-13 13:42:00,
2013-04-13 09:48:00,75.0,68.8,29.56,SW,225,0.0,0.0,81,0.00,,---,0.00,VWS V13.01,2013-04-13 13:48:00,
2013-04-13 09:54:00,75.0,68.8,29.56,SW,225,0.0,0.0,81,0.00,,---,0.00,VWS V13.01,2013-04-13 13:54:00,
2013-04-13 09:59:00,75.0,68.8,29.56,SW,225,0.0,0.0,81,0.00,,---,0.00,VWS V13.01,2013-04-13 13:59:00,
2013-04-13 10:04:00,75.0,68.8,29.56,SW,225,0.0,0.0,81,0.00,,---,0.00,VWS V13.01,2013-04-13 14:04:00,
2013-04-13 10:09:00,75.0,68.8,29.56,SW,225,0.0,0.0,81,0.00,,---,0.00,VWS V13.01,2013-04-13 14:09:00,
2013-04-13 10:14:00,75.0,68.8,29.56,SW,225,0.0,0.0,81,0.00,,---,0.00,VWS V13.01,2013-04-13 14:14:00,
2013-04-13 10:19:00,75.0,68.8,29.56,SW,225,0.0,0.0,81,0.00,,---,0.00,VWS V13.01,2013-04-13 14:19:00,
2013-04-13 10:24:00,75.0,68.8,29.56,SW,225,0.0,0.0,81,0.00,,---,0.00,VWS V13.01,2013-04-13 14:24:00,
2013-04-13 10:30:00,75.0,68.8,29.56,SW,225,0.0,0.0,81,0.00,,---,0.00,VWS V13.01,2013-04-13 14:30:00,
2013-04-13 10:35:00,75.0,68.8,29.56,SW,225,0.0,0.0,81,0.00,,---,0.00,VWS V13.01,2013-04-13 14:35:00,
2013-04-13 10:40:00,75.0,68.8,29.56,SW,225,0.0,0.0,81,0.00,,---,0.00,VWS V13.01,2013-04-13 14:40:00,
2013-04-13 10:45:00,75.0,68.8,29.56,SW,225,0.0,0.0,81,0.00,,---,0.00,VWS V13.01,2013-04-13 14:45:00,
2013-04-13 10:51:00,75.0,68.8,29.56,SW,225,0.0,0.0,81,0.00,,---,0.00,VWS V13.01,2013-04-13 14:51:00,
2013-04-13 10:57:00,75.0,68.8,29.56,SW,225,0.0,0.0,81,0.00,,---,0.00,VWS V13.01,2013-04-13 14:57:00,
2013-04-13 11:02:00,75.0,68.8,29.56,SW,225,0.0,0.0,81,0.00,,---,0.00,VWS V13.01,2013-04-13 15:02:00,
2013-04-13 11:07:00,75.0,68.8,29.56,SW,225,0.0,0.0,81,0.00,,---,0.00,VWS V13.01,2013-04-13 15:07:00,
2013-04-13 11:12:00,75.0,68.8,29.56,SW,225,0.0,0.0,81,0.00,,---,0.00,VWS V13.01,2013-04-13 15:12:00,
2013-04-13 11:17:00,75.0,68.8,29.56,SW,225,0.0,0.0,81,0.00,,---,0.00,VWS V13.01,2013-04-13 15:17:00,
2013-04-13 11:22:00,75.0,68.8,29.56,SW,225,0.0,0.0,81,0.00,,---,0.00,VWS V13.01,2013-04-13 15:22:00,
2013-04-13 11:27:00,75.0,68.8,29.56,SW,225,0.0,0.0,81,0.00,,---,0.00,VWS V13.01,2013-04-13 15:27:00,
2013-04-13 11:32:00,75.0,68.8,29.56,SW,225,0.0,0.0,81,0.00,,---,0.00,VWS V13.01,2013-04-13 15:32:00,
2013-04-13 11:37:00,75.0,68.8,29.56,SW,225,0.0,0.0,81,0.00,,---,0.00,VWS V13.01,2013-04-13 15:37:00,
2013-04-13 11:43:00,75.0,68.8,29.56,SW,225,0.0,0.0,81,0.00,,---,0.00,VWS V13.01,2013-04-13 15:43:00,
2013-04-13 11:48:00,75.0,68.8,29.56,SW,225,0.0,0.0,81,0.00,,---,0.00,VWS V13.01,2013-04-13 15:48:00,
2013-04-13 11:53:00,75.0,68.8,29.56,SW,225,0.0,0.0,81,0.00,,---,0.00,VWS V13.01,2013-04-13 15:53:00,
2013-04-13 11:59:00,75.0,68.8,29.56,SW,225,0.0,0.0,81,0.00,,---,0.00,VWS V13.01,2013-04-13 15:59:00,
2013-04-13 12:04:00,75.0,68.8,29.56,SW,225,0.0,0.0,81,0.00,,---,0.00,VWS V13.01,2013-04-13 16:04:00,
2013-04-13 12:10:00,75.0,68.8,29.56,SW,225,0.0,0.0,81,0.00,,---,0.00,VWS V13.01,2013-04-13 16:10:00,
2013-04-13 12:15:00,75.0,68.8,29.56,SW,225,0.0,0.0,81,0.00,,---,0.00,VWS V13.01,2013-04-13 16:15:00,
2013-04-13 12:20:00,75.0,68.8,29.56,SW,225,0.0,0.0,81,0.00,,---,0.00,VWS V13.01,2013-04-13 16:20:00,
2013-04-13 12:25:00,75.0,68.8,29.56,SW,225,0.0,0.0,81,0.00,,---,0.00,VWS V13.01,2013-04-13 16:25:00,
2013-04-13 12:30:00,75.0,68.8,29.56,SW,225,0.0,0.0,81,0.00,,---,0.00,VWS V13.01,2013-04-13 16:30:00,
2013-04-13 12:35:00,75.0,68.8,29.56,SW,225,0.0,0.0,81,0.00,,---,0.00,VWS V13.01,2013-04-13 16:35:00,
2013-04-13 12:40:00,75.0,68.8,29.56,SW,225,0.0,0.0,81,0.00,,---,0.00,VWS V13.01,2013-04-13 16:40:00,
2013-04-13 12:45:00,75.0,68.8,29.56,SW,225,0.0,0.0,81,0.00,,---,0.00,VWS V13.01,2013-04-13 16:45:00,
2013-04-13 12:50:00,75.0,68.8,29.56,SW,225,0.0,0.0,81,0.00,,---,0.00,VWS V13.01,2013-04-13 16:50:00,
2013-04-13 12:55:00,75.0,68.8,29.56,SW,225,0.0,0.0,81,0.00,,---,0.00,VWS V13.01,2013-04-13 16:55:00,
2013-04-13 13:02:00,75.0,68.8,29.56,SW,225,0.0,0.0,81,0.00,,---,0.00,VWS V13.01,2013-04-13 17:02:00,
2013-04-13 13:08:00,75.0,68.8,29.56,SW,225,0.0,0.0,81,0.00,,---,0.00,VWS V13.01,2013-04-13 17:08:00,
2013-04-13 13:16:00,75.0,68.8,29.56,SW,225,0.0,0.0,81,0.00,,---,0.00,VWS V13.01,2013-04-13 17:16:00,
2013-04-13 13:22:00,75.0,68.8,29.56,SW,225,0.0,0.0,81,0.00,,---,0.00,VWS V13.01,2013-04-13 17:22:00,
2013-04-13 13:27:00,75.0,68.8,29.56,SW,225,0.0,0.0,81,0.00,,---,0.00,VWS V13.01,2013-04-13 17:27:00,
2013-04-13 13:33:00,75.0,68.8,29.56,SW,225,0.0,0.0,81,0.00,,---,0.00,VWS V13.01,2013-04-13 17:33:00,
2013-04-13 13:38:00,75.0,68.8,29.56,SW,225,0.0,0.0,81,0.00,,---,0.00,VWS V13.01,2013-04-13 17:38:00,
2013-04-13 13:44:00,75.0,68.8,29.56,SW,225,0.0,0.0,81,0.00,,---,0.00,VWS V13.01,2013-04-13 17:44:00,
2013-04-13 13:49:00,75.0,68.8,29.56,SW,225,0.0,0.0,81,0.00,,---,0.00,VWS V13.01,2013-04-13 17:49:00,
2013-04-13 13:55:00,75.0,68.8,29.56,SW,225,0.0,0.0,81,0.00,,---,0.00,VWS V13.01,2013-04-13 17:55:00,
2013-04-13 14:01:00,75.0,68.8,29.56,SW,225,0.0,0.0,81,0.00,,---,0.00,VWS V13.01,2013-04-13 18:01:00,
2013-04-13 14:06:00,75.0,68.8,29.56,SW,225,0.0,0.0,81,0.00,,---,0.00,VWS V13.01,2013-04-13 18:06:00,
2013-04-13 14:12:00,75.0,68.8,29.56,SW,225,0.0,0.0,81,0.00,,---,0.00,VWS V13.01,2013-04-13 18:12:00,
2013-04-13 14:17:00,75.0,68.8,29.56,SW,225,0.0,0.0,81,0.00,,---,0.00,VWS V13.01,2013-04-13 18:17:00,
2013-04-13 14:22:00,75.0,68.8,29.56,SW,225,0.0,0.0,81,0.00,,---,0.00,VWS V13.01,2013-04-13 18:22:00,
2013-04-13 14:27:00,75.0,68.8,29.56,SW,225,0.0,0.0,81,0.00,,---,0.00,VWS V13.01,2013-04-13 18:27:00,
2013-04-13 14:28:00,75.0,68.8,29.56,SW,225,0.0,0.0,81,0.00,,---,0.00,VWS V13.01,2013-04-13 18:28:00,
2013-04-13 14:33:00,75.0,68.8,29.56,SW,225,0.0,0.0,81,0.00,,---,0.00,VWS V13.01,2013-04-13 18:33:00,
2013-04-13 14:39:00,75.0,68.8,29.56,SW,225,0.0,0.0,81,0.00,,---,0.00,VWS V13.01,2013-04-13 18:39:00,
2013-04-13 14:44:00,75.0,68.8,29.56,SW,225,0.0,0.0,81,0.00,,---,0.00,VWS V13.01,2013-04-13 18:44:00,
2013-04-13 14:49:00,75.0,68.8,29.56,SW,225,0.0,0.0,81,0.00,,---,0.00,VWS V13.01,2013-04-13 18:49:00,
2013-04-13 14:54:00,75.0,68.8,29.56,SW,225,0.0,0.0,81,0.00,,---,0.00,VWS V13.01,2013-04-13 18:54:00,
2013-04-13 14:59:00,75.0,68.8,29.56,SW,225,0.0,0.0,81,0.00,,---,0.00,VWS V13.01,2013-04-13 18:59:00,
2013-04-13 15:04:00,75.0,68.8,29.56,SW,225,0.0,0.0,81,0.00,,---,0.00,VWS V13.01,2013-04-13 19:04:00,
2013-04-13 15:09:00,75.0,68.8,29.56,SW,225,0.0,0.0,81,0.00,,---,0.00,VWS V13.01,2013-04-13 19:09:00,
2013-04-13 15:14:00,75.0,68.8,29.56,SW,225,0.0,0.0,81,0.00,,---,0.00,VWS V13.01,2013-04-13 19:14:00,
2013-04-13 15:19:00,75.0,68.8,29.56,SW,225,0.0,0.0,81,0.00,,---,0.00,VWS V13.01,2013-04-13 19:19:00,
2013-04-13 15:24:00,75.0,68.8,29.56,SW,225,0.0,0.0,81,0.00,,---,0.00,VWS V13.01,2013-04-13 19:24:00,
2013-04-13 15:29:00,75.0,68.8,29.56,SW,225,0.0,0.0,81,0.00,,---,0.00,VWS V13.01,2013-04-13 19:29:00,
2013-04-13 15:34:00,75.0,68.8,29.56,SW,225,0.0,0.0,81,0.00,,---,0.00,VWS V13.01,2013-04-13 19:34:00,
2013-04-13 15:39:00,75.0,68.8,29.56,SW,225,0.0,0.0,81,0.00,,---,0.00,VWS V13.01,2013-04-13 19:39:00,
2013-04-13 15:44:00,75.0,68.8,29.56,SW,225,0.0,0.0,81,0.00,,---,0.00,VWS V13.01,2013-04-13 19:44:00,
2013-04-13 15:49:00,75.0,68.8,29.56,SW,225,0.0,0.0,81,0.00,,---,0.00,VWS V13.01,2013-04-13 19:49:00,
2013-04-13 15:54:00,75.0,68.8,29.56,SW,225,0.0,0.0,81,0.00,,---,0.00,VWS V13.01,2013-04-13 19:54:00,
2013-04-13 15:59:00,75.0,68.8,29.56,SW,225,0.0,0.0,81,0.00,,---,0.00,VWS V13.01,2013-04-13 19:59:00,
2013-04-13 16:04:00,75.0,68.8,29.56,SW,225,0.0,0.0,81,0.00,,---,0.00,VWS V13.01,2013-04-13 20:04:00,
2013-04-13 16:09:00,75.0,68.8,29.56,SW,225,0.0,0.0,81,0.00,,---,0.00,VWS V13.01,2013-04-13 20:09:00,
2013-04-13 16:14:00,75.0,68.8,29.56,SW,225,0.0,0.0,81,0.00,,---,0.00,VWS V13.01,2013-04-13 20:14:00,
2013-04-13 16:19:00,75.0,68.8,29.56,SW,225,0.0,0.0,81,0.00,,---,0.00,VWS V13.01,2013-04-13 20:19:00,
2013-04-13 16:24:00,75.0,68.8,29.56,SW,225,0.0,0.0,81,0.00,,---,0.00,VWS V13.01,2013-04-13 20:24:00,
2013-04-13 16:29:00,75.0,68.8,29.56,SW,225,0.0,0.0,81,0.00,,---,0.00,VWS V13.01,2013-04-13 20:29:00,
2013-04-13 16:34:00,75.0,68.8,29.56,SW,225,0.0,0.0,81,0.00,,---,0.00,VWS V13.01,2013-04-13 20:34:00,
2013-04-13 16:39:00,75.0,68.8,29.56,SW,225,0.0,0.0,81,0.00,,---,0.00,VWS V13.01,2013-04-13 20:39:00,
2013-04-13 16:44:00,75.0,68.8,29.56,SW,225,0.0,0.0,81,0.00,,---,0.00,VWS V13.01,2013-04-13 20:44:00,
2013-04-13 16:49:00,75.0,68.8,29.56,SW,225,0.0,0.0,81,0.00,,---,0.00,VWS V13.01,2013-04-13 20:49:00,
2013-04-13 16:54:00,75.0,68.8,29.56,SW,225,0.0,0.0,81,0.00,,---,0.00,VWS V13.01,2013-04-13 20:54:00,
2013-04-13 16:59:00,75.0,68.8,29.56,SW,225,0.0,0.0,81,0.00,,---,0.00,VWS V13.01,2013-04-13 20:59:00,
2013-04-13 17:04:00,75.0,68.8,29.56,SW,225,0.0,0.0,81,0.00,,---,0.00,VWS V13.01,2013-04-13 21:04:00,
2013-04-13 17:09:00,75.0,68.8,29.56,SW,225,0.0,0.0,81,0.00,,---,0.00,VWS V13.01,2013-04-13 21:09:00,
2013-04-13 17:14:00,75.0,68.8,29.56,SW,225,0.0,0.0,81,0.00,,---,0.00,VWS V13.01,2013-04-13 21:14:00,
2013-04-13 17:19:00,75.0,68.8,29.56,SW,225,0.0,0.0,81,0.00,,---,0.00,VWS V13.01,2013-04-13 21:19:00,
2013-04-13 17:24:00,75.0,68.8,29.56,SW,225,0.0,0.0,81,0.00,,---,0.00,VWS V13.01,2013-04-13 21:24:00,
2013-04-13 17:29:00,75.0,68.8,29.56,SW,225,0.0,0.0,81,0.00,,---,0.00,VWS V13.01,2013-04-13 21:29:00,
2013-04-13 17:34:00,75.0,68.8,29.56,SW,225,0.0,0.0,81,0.00,,---,0.00,VWS V13.01,2013-04-13 21:34:00,
2013-04-13 17:39:00,75.0,68.8,29.56,SW,225,0.0,0.0,81,0.00,,---,0.00,VWS V13.01,2013-04-13 21:39:00,
2013-04-13 17:44:00,75.0,68.8,29.56,SW,225,0.0,0.0,81,0.00,,---,0.00,VWS V13.01,2013-04-13 21:44:00,
2013-04-13 17:49:00,75.0,68.8,29.56,SW,225,0.0,0.0,81,0.00,,---,0.00,VWS V13.01,2013-04-13 21:49:00,
2013-04-13 17:54:00,75.0,68.8,29.56,SW,225,0.0,0.0,81,0.00,,---,0.00,VWS V13.01,2013-04-13 21:54:00,
2013-04-13 17:59:00,75.0,68.8,29.56,SW,225,0.0,0.0,81,0.00,,---,0.00,VWS V13.01,2013-04-13 21:59:00,
2013-04-13 18:04:00,75.0,68.8,29.56,SW,225,0.0,0.0,81,0.00,,---,0.00,VWS V13.01,2013-04-13 22:04:00,
2013-04-13 18:09:00,75.0,68.8,29.56,SW,225,0.0,0.0,81,0.00,,---,0.00,VWS V13.01,2013-04-13 22:09:00,
2013-04-13 18:14:00,75.0,68.8,29.56,SW,225,0.0,0.0,81,0.00,,---,0.00,VWS V13.01,2013-04-13 22:14:00,
2013-04-13 18:19:00,75.0,68.8,29.56,SW,225,0.0,0.0,81,0.00,,---,0.00,VWS V13.01,2013-04-13 22:19:00,
2013-04-13 18:24:00,75.0,68.8,29.56,SW,225,0.0,0.0,81,0.00,,---,0.00,VWS V13.01,2013-04-13 22:24:00,
2013-04-13 18:29:00,75.0,68.8,29.56,SW,225,0.0,0.0,81,0.00,,---,0.00,VWS V13.01,2013-04-13 22:29:00,
2013-04-13 18:34:00,75.0,68.8,29.56,SW,225,0.0,0.0,81,0.00,,---,0.00,VWS V13.01,2013-04-13 22:34:00,
2013-04-13 18:39:00,75.0,68.8,29.56,SW,225,0.0,0.0,81,0.00,,---,0.00,VWS V13.01,2013-04-13 22:39:00,
2013-04-13 18:44:00,75.0,68.8,29.56,SW,225,0.0,0.0,81,0.00,,---,0.00,VWS V13.01,2013-04-13 22:44:00,
2013-04-13 18:49:00,75.0,68.8,29.56,SW,225,0.0,0.0,81,0.00,,---,0.00,VWS V13.01,2013-04-13 22:49:00,
2013-04-13 18:54:00,75.0,68.8,29.56,SW,225,0.0,0.0,81,0.00,,---,0.00,VWS V13.01,2013-04-13 22:54:00,
2013-04-13 18:59:00,75.0,68.8,29.56,SW,225,0.0,0.0,81,0.00,,---,0.00,VWS V13.01,2013-04-13 22:59:00,
2013-04-13 19:04:00,75.0,68.8,29.56,SW,225,0.0,0.0,81,0.00,,---,0.00,VWS V13.01,2013-04-13 23:04:00,
2013-04-13 19:09:00,75.0,68.8,29.56,SW,225,0.0,0.0,81,0.00,,---,0.00,VWS V13.01,2013-04-13 23:09:00,
2013-04-13 19:14:00,75.0,68.8,29.56,SW,225,0.0,0.0,81,0.00,,---,0.00,VWS V13.01,2013-04-13 23:14:00,
2013-04-13 19:19:00,75.0,68.8,29.56,SW,225,0.0,0.0,81,0.00,,---,0.00,VWS V13.01,2013-04-13 23:19:00,
2013-04-13 19:24:00,75.0,68.8,29.56,SW,225,0.0,0.0,81,0.00,,---,0.00,VWS V13.01,2013-04-13 23:24:00,
2013-04-13 19:29:00,75.0,68.8,29.56,SW,225,0.0,0.0,81,0.00,,---,0.00,VWS V13.01,2013-04-13 23:29:00,
2013-04-13 19:34:00,75.0,68.8,29.56,SW,225,0.0,0.0,81,0.00,,---,0.00,VWS V13.01,2013-04-13 23:34:00,
2013-04-13 19:39:00,75.0,68.8,29.56,SW,225,0.0,0.0,81,0.00,,---,0.00,VWS V13.01,2013-04-13 23:39:00,
2013-04-13 19:44:00,75.0,68.8,29.56,SW,225,0.0,0.0,81,0.00,,---,0.00,VWS V13.01,2013-04-13 23:44:00,
2013-04-13 19:49:00,75.0,68.8,29.56,SW,225,0.0,0.0,81,0.00,,---,0.00,VWS V13.01,2013-04-13 23:49:00,
2013-04-13 19:54:00,75.0,68.8,29.56,SW,225,0.0,0.0,81,0.00,,---,0.00,VWS V13.01,2013-04-13 23:54:00,
2013-04-13 19:59:00,75.0,68.8,29.56,SW,225,0.0,0.0,81,0.00,,---,0.00,VWS V13.01,2013-04-13 23:59:00,
2013-04-13 20:04:00,75.0,68.8,29.56,SW,225,0.0,0.0,81,0.00,,---,0.00,VWS V13.01,2013-04-14 00:04:00,
2013-04-13 20:09:00,75.0,68.8,29.56,SW,225,0.0,0.0,81,0.00,,---,0.00,VWS V13.01,2013-04-14 00:09:00,
2013-04-13 20:14:00,75.0,68.8,29.56,SW,225,0.0,0.0,81,0.00,,---,0.00,VWS V13.01,2013-04-14 00:14:00,
2013-04-13 20:19:00,75.0,68.8,29.56,SW,225,0.0,0.0,81,0.00,,---,0.00,VWS V13.01,2013-04-14 00:19:00,
2013-04-13 20:24:00,75.0,68.8,29.56,SW,225,0.0,0.0,81,0.00,,---,0.00,VWS V13.01,2013-04-14 00:24:00,
2013-04-13 20:29:00,75.0,68.8,29.56,SW,225,0.0,0.0,81,0.00,,---,0.00,VWS V13.01,2013-04-14 00:29:00,
2013-04-13 20:34:00,75.0,68.8,29.56,SW,225,0.0,0.0,81,0.00,,---,0.00,VWS V13.01,2013-04-14 00:34:00,
2013-04-13 20:39:00,75.0,68.8,29.56,SW,225,0.0,0.0,81,0.00,,---,0.00,VWS V13.01,2013-04-14 00:39:00,
2013-04-13 20:44:00,75.0,68.8,29.56,SW,225,0.0,0.0,81,0.00,,---,0.00,VWS V13.01,2013-04-14 00:44:00,
2013-04-13 20:49:00,75.0,68.8,29.56,SW,225,0.0,0.0,81,0.00,,---,0.00,VWS V13.01,2013-04-14 00:49:00,
2013-04-13 20:54:00,75.0,68.8,29.56,SW,225,0.0,0.0,81,0.00,,---,0.00,VWS V13.01,2013-04-14 00:54:00,
2013-04-13 20:59:00,75.0,68.8,29.56,SW,225,0.0,0.0,81,0.00,,---,0.00,VWS V13.01,2013-04-14 00:59:00,
2013-04-13 21:05:00,75.0,68.8,29.56,SW,225,0.0,0.0,81,0.00,,---,0.00,VWS V13.01,2013-04-14 01:05:00,
2013-04-13 21:10:00,75.0,68.8,29.56,SW,225,0.0,0.0,81,0.00,,---,0.00,VWS V13.01,2013-04-14 01:10:00,
2013-04-13 21:15:00,75.0,68.8,29.56,SW,225,0.0,0.0,81,0.00,,---,0.00,VWS V13.01,2013-04-14 01:15:00,
2013-04-13 21:20:00,74.3,67.7,29.60,North,360,0.0,0.0,80,0.00,,---,0.00,VWS V13.01,2013-04-14 01:20:00,
2013-04-13 21:25:00,74.3,67.7,29.60,North,360,0.0,0.0,80,0.00,,---,0.00,VWS V13.01,2013-04-14 01:25:00,
2013-04-13 21:30:00,74.3,68.1,29.60,North,360,0.0,0.0,81,0.00,,---,0.00,VWS V13.01,2013-04-14 01:30:00,
2013-04-13 21:35:00,74.3,68.1,29.60,North,360,0.0,0.0,81,0.00,,---,0.00,VWS V13.01,2013-04-14 01:35:00,
2013-04-13 21:40:00,74.3,68.1,29.60,North,360,0.0,0.0,81,0.00,,---,0.00,VWS V13.01,2013-04-14 01:40:00,
2013-04-13 21:45:00,74.3,68.1,29.60,North,360,0.0,0.0,81,0.00,,---,0.00,VWS V13.01,2013-04-14 01:45:00,
2013-04-13 21:50:00,74.3,68.1,29.61,North,360,0.0,0.0,81,0.00,,---,0.00,VWS V13.01,2013-04-14 01:50:00,
2013-04-13 21:55:00,74.1,67.9,29.61,North,360,0.0,0.0,81,0.00,,---,0.00,VWS V13.01,2013-04-14 01:55:00,
2013-04-13 22:00:00,74.1,67.9,29.61,North,360,0.0,0.0,81,0.00,,---,0.00,VWS V13.01,2013-04-14 02:00:00,
2013-04-13 22:05:00,74.1,67.9,29.61,North,360,0.0,0.0,81,0.00,,---,0.00,VWS V13.01,2013-04-14 02:05:00,
2013-04-13 22:10:00,74.1,67.9,29.61,North,360,0.0,0.0,81,0.00,,---,0.00,VWS V13.01,2013-04-14 02:10:00,
2013-04-13 22:15:00,74.1,67.9,29.62,North,360,0.0,0.0,81,0.00,,---,0.00,VWS V13.01,2013-04-14 02:15:00,
2013-04-13 22:20:00,74.1,67.9,29.62,North,360,0.0,0.0,81,0.00,,---,0.00,VWS V13.01,2013-04-14 02:20:00,
2013-04-13 22:25:00,74.1,67.9,29.62,North,360,0.0,0.0,81,0.00,,---,0.00,VWS V13.01,2013-04-14 02:25:00,
2013-04-13 22:30:00,74.1,67.9,29.62,North,360,0.0,0.0,81,0.00,,---,0.00,VWS V13.01,2013-04-14 02:30:00,
2013-04-13 22:35:00,73.9,68.1,29.62,North,360,0.0,0.0,82,0.00,,---,0.00,VWS V13.01,2013-04-14 02:35:00,
2013-04-13 22:40:00,73.9,68.1,29.63,North,360,0.0,0.0,82,0.00,,---,0.00,VWS V13.01,2013-04-14 02:40:00,
2013-04-13 22:45:00,73.9,68.1,29.63,North,360,0.0,0.0,82,0.00,,---,0.00,VWS V13.01,2013-04-14 02:45:00,
2013-04-13 22:50:00,74.1,68.3,29.63,North,360,0.0,0.0,82,0.00,,---,0.00,VWS V13.01,2013-04-14 02:50:00,
2013-04-13 22:55:00,74.1,68.6,29.64,North,360,0.0,0.0,83,0.00,,---,0.00,VWS V13.01,2013-04-14 02:55:00,
2013-04-13 23:00:00,74.1,68.6,29.64,North,360,0.0,0.0,83,0.00,,---,0.00,VWS V13.01,2013-04-14 03:00:00,
2013-04-13 23:05:00,74.1,68.6,29.64,North,360,0.0,0.0,83,0.00,,---,0.00,VWS V13.01,2013-04-14 03:05:00,
2013-04-13 23:10:00,74.1,68.6,29.64,North,360,0.0,0.0,83,0.00,,---,0.00,VWS V13.01,2013-04-14 03:10:00,
2013-04-13 23:15:00,74.1,69.0,29.64,North,360,0.0,0.0,84,0.00,,---,0.00,VWS V13.01,2013-04-14 03:15:00,
2013-04-13 23:20:00,74.1,69.0,29.64,North,360,0.0,0.0,84,0.00,,---,0.00,VWS V13.01,2013-04-14 03:20:00,
2013-04-13 23:25:00,74.1,69.0,29.64,North,360,0.0,0.0,84,0.00,,---,0.00,VWS V13.01,2013-04-14 03:25:00,
2013-04-13 23:30:00,74.1,69.0,29.65,North,360,0.0,0.0,84,0.00,,---,0.00,VWS V13.01,2013-04-14 03:30:00,
2013-04-13 23:35:00,74.1,69.0,29.64,North,360,0.0,0.0,84,0.00,,---,0.00,VWS V13.01,2013-04-14 03:35:00,
2013-04-13 23:40:00,73.9,68.8,29.64,North,360,0.0,0.0,84,0.00,,---,0.00,VWS V13.01,2013-04-14 03:40:00,
2013-04-13 23:45:00,73.9,68.8,29.64,North,360,0.0,0.0,84,0.00,,---,0.00,VWS V13.01,2013-04-14 03:45:00,
2013-04-13 23:50:00,73.9,68.8,29.64,North,360,0.0,0.0,84,0.00,,---,0.00,VWS V13.01,2013-04-14 03:50:00,
2013-04-13 23:55:00,73.9,68.8,29.65,North,360,0.0,0.0,84,0.00,,---,0.00,VWS V13.01,2013-04-14 03:55:00,